TimeCDT,TemperatureF,Dew PointF,Humidity,Sea Level PressureIn,VisibilityMPH,Wind Direction,Wind SpeedMPH,Gust SpeedMPH,PrecipitationIn,Events,Conditions,WindDirDegrees,DateUTC
12:53 AM,46.9,35.1,63,29.68,10.0,West,12.7,20.7,N/A,,Overcast,280,2013-10-26 05:53:00
1:53 AM,46.0,33.1,61,29.68,10.0,WNW,10.4,19.6,N/A,,Overcast,290,2013-10-26 06:53:00
2:53 AM,46.0,32.0,58,29.68,10.0,WNW,13.8,19.6,N/A,,Overcast,290,2013-10-26 07:53:00
3:53 AM,42.1,32.0,67,29.70,10.0,WNW,10.4,21.9,N/A,,Overcast,300,2013-10-26 08:53:00
4:53 AM,41.0,32.0,70,29.72,10.0,WNW,10.4,24.2,N/A,,Overcast,300,2013-10-26 09:53:00
5:10 AM,41.0,33.8,76,29.69,10.0,WNW,10.4,16.1,N/A,,Overcast,300,2013-10-26 10:10:00
5:32 AM,41.0,32.0,70,29.70,10.0,WNW,10.4,23.0,N/A,,Overcast,300,2013-10-26 10:32:00
5:53 AM,39.9,32.0,73,29.74,10.0,WNW,12.7,23.0,N/A,,Overcast,300,2013-10-26 10:53:00
6:06 AM,39.2,30.2,70,29.71,10.0,WNW,11.5,19.6,N/A,,Overcast,300,2013-10-26 11:06:00
6:53 AM,37.9,32.0,79,29.77,10.0,NW,10.4,-,0.00,,Overcast,310,2013-10-26 11:53:00
7:05 AM,37.4,32.0,81,29.74,10.0,NW,12.7,23.0,0.00,Rain,Light Rain,320,2013-10-26 12:05:00
7:30 AM,35.6,32.0,87,29.75,10.0,NW,8.1,-,0.00,,Overcast,310,2013-10-26 12:30:00
7:53 AM,36.0,32.0,86,29.80,10.0,WNW,15.0,23.0,0.00,Rain,Light Rain,300,2013-10-26 12:53:00
8:38 AM,35.6,30.2,81,29.78,10.0,NW,9.2,18.4,0.00,,Mostly Cloudy,310,2013-10-26 13:38:00
8:53 AM,37.0,30.9,79,29.83,10.0,NW,9.2,18.4,0.00,,Partly Cloudy,310,2013-10-26 13:53:00
9:23 AM,37.4,30.2,75,29.80,10.0,WNW,11.5,17.3,N/A,,Mostly Cloudy,300,2013-10-26 14:23:00
9:53 AM,37.9,28.9,70,29.84,10.0,WNW,9.2,19.6,N/A,,Overcast,300,2013-10-26 14:53:00
10:41 AM,35.6,30.2,81,29.84,1.8,NNW,13.8,21.9,0.01,Snow,Light Snow,330,2013-10-26 15:41:00
10:49 AM,33.8,32.0,93,29.84,2.0,NW,9.2,20.7,0.01,Snow,Light Snow,320,2013-10-26 15:49:00
10:50 AM,35.6,32.0,87,29.84,3.0,NW,8.1,19.6,0.01,Snow,Light Snow,320,2013-10-26 15:50:00
10:53 AM,35.1,33.1,92,29.88,8.0,NW,9.2,-,0.01,Snow,Light Snow,310,2013-10-26 15:53:00
11:53 AM,39.9,32.0,73,29.90,10.0,NNW,9.2,17.3,0.00,,Mostly Cloudy,330,2013-10-26 16:53:00
12:53 PM,37.0,32.0,82,29.93,9.0,North,6.9,-,0.00,Rain,Light Rain,360,2013-10-26 17:53:00
1:21 PM,39.2,33.8,81,29.90,10.0,North,6.9,-,0.00,,Mostly Cloudy,350,2013-10-26 18:21:00
1:53 PM,39.0,28.0,65,29.95,9.0,NNW,9.2,21.9,0.00,,Overcast,330,2013-10-26 18:53:00
2:53 PM,39.0,27.0,62,29.96,10.0,NNW,9.2,16.1,N/A,,Mostly Cloudy,330,2013-10-26 19:53:00
3:53 PM,39.0,25.0,57,29.99,10.0,North,8.1,-,N/A,,Overcast,350,2013-10-26 20:53:00
4:53 PM,39.0,25.0,57,30.01,10.0,NNW,9.2,19.6,N/A,,Overcast,330,2013-10-26 21:53:00
5:53 PM,37.9,25.0,60,30.02,10.0,NW,6.9,-,N/A,,Overcast,320,2013-10-26 22:53:00
6:53 PM,37.0,27.0,67,30.05,10.0,WNW,3.5,-,N/A,,Overcast,300,2013-10-26 23:53:00
7:53 PM,36.0,28.0,73,30.05,10.0,Calm,Calm,-,N/A,,Overcast,0,2013-10-27 00:53:00
8:53 PM,35.1,28.9,78,30.04,10.0,Calm,Calm,-,N/A,,Overcast,0,2013-10-27 01:53:00
9:53 PM,35.1,28.9,78,30.05,10.0,WSW,4.6,-,N/A,,Overcast,250,2013-10-27 02:53:00
10:53 PM,34.0,28.0,79,30.04,10.0,West,4.6,-,N/A,,Overcast,270,2013-10-27 03:53:00
11:53 PM,34.0,28.0,79,30.02,10.0,West,4.6,-,N/A,,Overcast,260,2013-10-27 04:53:00